This demonstration page uses our WeatherBlox Daily Observations layout. Learn more.

Left ArrowRight Arrow

Hourly Observations for July 4, 2015

Temp ( °F °C ) Dew Point ( °F °C ) Humidity (%) Winds ( mph kmh ) Pressure ( in mb ) Visibility ( mi km ) Precip ( " mm )
12:51 am 00:51 Mostly Cloudy 81 27.2 63 17.2 54 54 E 8 13 29.75 1007 10 16.0934 N/A
1:51 am 01:51 Mostly Clear 70 21.1 60 15.6 71 71 E 10 17 29.72 1007 10 16.0934 N/A
2:51 am 02:51 Clear 81 27.2 58 14.4 45 45 E 13 20 29.74 1007 10 16.0934 N/A
3:51 am 03:51 Mostly Clear 77 25 74 23.3 90 90 E 10 17 29.95 1014 10 16.0934 N/A
4:51 am 04:51 Clear 78 25.6 60 15.6 54 54 E 7 11 29.76 1008 10 16.0934 N/A
5:51 am 05:51 Sunny 77 25 60 15.6 56 56 E 8 13 29.76 1008 10 16.0934 N/A
6:51 am 06:51 Sunny 81 27.2 59 15 47 47 E 16 26 29.78 1008 10 16.0934 N/A
7:51 am 07:51 Sunny 58 14.4 37 2.8 46 46 E 15 24 29.84 1010 10 16.0934 N/A
8:51 am 08:51 Partly Cloudy 85 29.4 61 16.1 45 45 E 15 24 29.82 1010 10 16.0934 N/A
9:51 am 09:51 Sunny 78 25.7 71 21.9 80 80 SSE 13 20 29.9 1012 10 16.0934 N/A
10:51 am 10:51 Mostly Sunny 88 31.1 60 15.6 39 39 SE 8 13 29.81 1009 10 16.0934 N/A
11:51 am 11:51 Sunny 90 32.2 58 14.4 34 34 ESE 8 13 29.79 1009 10 16.0934 N/A
12:51 pm 12:51 Sunny 94 34.4 59 15 31 31 VRB 3 6 29.75 1007 10 16.0934 N/A
1:51 pm 13:51 Mostly Cloudy 95 35 58 14.4 29 29 WNW 18 30 29.72 1007 10 16.0934 N/A
2:00 pm 14:00 Mostly Cloudy 96 35.6 59 15 29 29 W 24 39 29.62 1003 10 16.0934 N/A
2:13 pm 14:13 Partly Cloudy with Thunderstorms 86 30 62 16.7 45 45 W 25 41 29.68 1005 10 16.0934 N/A
2:28 pm 14:28 Mostly Sunny 84 28.9 62 16.7 48 48 W 21 33 29.71 1006 10 16.0934 N/A
2:51 pm 14:51 Mostly Sunny 90 32.2 60 15.6 37 37 WNW 14 22 29.72 1007 10 16.0934 N/A
3:51 pm 15:51 Sunny 94 34.4 57 13.9 29 29 NW 16 26 29.7 1006 10 16.0934 N/A
4:51 pm 16:51 Sunny 91 32.8 57 13.9 32 32 W 18 30 29.72 1006 10 16.0934 N/A
5:51 pm 17:51 Sunny 90 32.2 57 13.9 33 33 WNW 13 20 29.72 1007 10 16.0934 N/A
6:51 pm 18:51 Sunny 90 32.2 60 15.6 37 37 NE 13 20 29.72 1007 10 16.0934 N/A
7:51 pm 19:51 Clear 72 22.2 53 11.7 52 52 NNE 8 13 30.06 1018 10 16.0934 N/A
8:51 pm 20:51 Clear 87 30.6 57 13.9 36 36 N 10 17 29.76 1008 10 16.0934 N/A
9:51 pm 21:51 Clear 84 28.9 61 16.1 46 46 SW 8 13 29.79 1009 10 16.0934 N/A
10:51 pm 22:51 Clear 83 28.3 61 16.1 48 48 WSW 3 6 29.79 1009 10 16.0934 N/A
11:51 pm 23:51 Mostly Cloudy 82 27.8 62 16.7 51 51 NNE 5 7 29.79 1009 10 16.0934 N/A

Powered by AerisWeather